#Datum;Uhrzeit;WR;Pac;DaySum;Status;WR;Pac;DaySum;Status;Pdc1;Udc;Temp;WR;Pac;DaySum;Status;Pdc1;Udc;Temp;WR;Pac;DaySum;Status;Pdc1;Udc;Temp;WR;Pac;DaySum;Status;Pdc1;Pdc2;Udc1;Udc2;Temp;WR;Pac;DaySum;Status;Pdc1;Pdc2;Udc1;Udc2;Temp;WR;Pac;DaySum;Status;Pdc1;Udc;Temp;WR;Pac;DaySum;Status;Pdc1;Udc;Temp;WR;Pac;DaySum;Status;Pdc1;Udc;Temp
11.02.21;23:55:00;1;2499;20451;0;2;0;18790;0;0;0;0;3;0;12115;0;0;0;0;4;0;17949;0;0;0;0;5;0;0;0;0;0;0;0;0;6;0;17237;0;0;0;0;0;0;7;0;27259;0;0;0;0;8;0;27703;0;0;0;0;9;0;11820;0;0;0;0
11.02.21;23:50:00;1;707;20247;0;2;0;18790;0;0;0;0;3;0;12115;0;0;0;0;4;0;17949;0;0;0;0;5;0;0;0;0;0;0;0;0;6;0;17237;0;0;0;0;0;0;7;0;27259;0;0;0;0;8;0;27703;0;0;0;0;9;0;11820;0;0;0;0
11.02.21;23:45:00;1;363;20159;0;2;0;18790;0;0;0;0;3;0;12115;0;0;0;0;4;0;17949;0;0;0;0;5;0;0;0;0;0;0;0;0;6;0;17237;0;0;0;0;0;0;7;0;27259;0;0;0;0;8;0;27703;0;0;0;0;9;0;11820;0;0;0;0
11.02.21;23:40:00;1;814;20129;0;2;0;18790;0;0;0;0;3;0;12115;0;0;0;0;4;0;17949;0;0;0;0;5;0;0;0;0;0;0;0;0;6;0;17237;0;0;0;0;0;0;7;0;27259;0;0;0;0;8;0;27703;0;0;0;0;9;0;11820;0;0;0;0
11.02.21;23:35:00;1;445;20052;0;2;0;18790;0;0;0;0;3;0;12115;0;0;0;0;4;0;17949;0;0;0;0;5;0;0;0;0;0;0;0;0;6;0;17237;0;0;0;0;0;0;7;0;27259;0;0;0;0;8;0;27703;0;0;0;0;9;0;11820;0;0;0;0
11.02.21;23:30:00;1;478;20015;0;2;0;18790;0;0;0;0;3;0;12115;0;0;0;0;4;0;17949;0;0;0;0;5;0;0;0;0;0;0;0;0;6;0;17237;0;0;0;0;0;0;7;0;27259;0;0;0;0;8;0;27703;0;0;0;0;9;0;11820;0;0;0;0
11.02.21;23:25:00;1;731;19976;0;2;0;18790;0;0;0;0;3;0;12115;0;0;0;0;4;0;17949;0;0;0;0;5;0;0;0;0;0;0;0;0;6;0;17237;0;0;0;0;0;0;7;0;27259;0;0;0;0;8;0;27703;0;0;0;0;9;0;11820;0;0;0;0
11.02.21;23:20:00;1;529;19900;0;2;0;18790;0;0;0;0;3;0;12115;0;0;0;0;4;0;17949;0;0;0;0;5;0;0;0;0;0;0;0;0;6;0;17237;0;0;0;0;0;0;7;0;27259;0;0;0;0;8;0;27703;0;0;0;0;9;0;11820;0;0;0;0
11.02.21;23:15:00;1;462;19855;0;2;0;18790;0;0;0;0;3;0;12115;0;0;0;0;4;0;17949;0;0;0;0;5;0;0;0;0;0;0;0;0;6;0;17237;0;0;0;0;0;0;7;0;27259;0;0;0;0;8;0;27703;0;0;0;0;9;0;11820;0;0;0;0
11.02.21;23:10:00;1;647;19796;0;2;0;18790;0;0;0;0;3;0;12115;0;0;0;0;4;0;17949;0;0;0;0;5;0;0;0;0;0;0;0;0;6;0;17237;0;0;0;0;0;0;7;0;27259;0;0;0;0;8;0;27703;0;0;0;0;9;0;11820;0;0;0;0
11.02.21;23:05:00;1;552;19742;0;2;0;18790;0;0;0;0;3;0;12115;0;0;0;0;4;0;17949;0;0;0;0;5;0;0;0;0;0;0;0;0;6;0;17237;0;0;0;0;0;0;7;0;27259;0;0;0;0;8;0;27703;0;0;0;0;9;0;11820;0;0;0;0
11.02.21;23:00:00;1;1182;19697;0;2;0;18790;0;0;0;0;3;0;12115;0;0;0;0;4;0;17949;0;0;0;0;5;0;0;0;0;0;0;0;0;6;0;17237;0;0;0;0;0;0;7;0;27259;0;0;0;0;8;0;27703;0;0;0;0;9;0;11820;0;0;0;0
11.02.21;22:55:00;1;481;19620;0;2;0;18790;0;0;0;0;3;0;12115;0;0;0;0;4;0;17949;0;0;0;0;5;0;0;0;0;0;0;0;0;6;0;17237;2;0;0;0;0;0;7;0;27259;0;0;0;0;8;0;27703;0;0;0;0;9;0;11820;0;0;0;0
11.02.21;22:50:00;1;704;19580;0;2;0;18790;0;0;0;0;3;0;12115;0;0;0;0;4;0;17949;0;0;0;0;5;0;0;0;0;0;0;0;0;6;0;17237;2;0;0;0;0;0;7;0;27259;0;0;0;0;8;0;27703;0;0;0;0;9;0;11820;0;0;0;0
11.02.21;22:45:00;1;857;19529;0;2;0;18790;0;0;0;0;3;0;12115;0;0;0;0;4;0;17949;0;0;0;0;5;0;0;0;0;0;0;0;0;6;0;17237;2;0;0;0;0;0;7;0;27259;0;0;0;0;8;0;27703;0;0;0;0;9;0;11820;0;0;0;0
11.02.21;22:40:00;1;448;19467;0;2;0;18790;0;0;0;0;3;0;12115;0;0;0;0;4;0;17949;0;0;0;0;5;0;0;0;0;0;0;0;0;6;0;17237;2;0;0;0;0;0;7;0;27259;0;0;0;0;8;0;27703;0;0;0;0;9;0;11820;0;0;0;0
11.02.21;22:35:00;1;850;19430;0;2;0;18790;0;0;0;0;3;0;12115;0;0;0;0;4;0;17949;0;0;0;0;5;0;0;0;0;0;0;0;0;6;0;17237;2;0;0;0;0;0;7;0;27259;0;0;0;0;8;0;27703;0;0;0;0;9;0;11820;0;0;0;0
11.02.21;22:30:00;1;455;19359;0;2;0;18790;0;0;0;0;3;0;12115;0;0;0;0;4;0;17949;0;0;0;0;5;0;0;0;0;0;0;0;0;6;0;17237;2;0;0;0;0;0;7;0;27259;0;0;0;0;8;0;27703;0;0;0;0;9;0;11820;0;0;0;0
11.02.21;22:25:00;1;439;19321;0;2;0;18790;0;0;0;0;3;0;12115;0;0;0;0;4;0;17949;0;0;0;0;5;0;0;0;0;0;0;0;0;6;0;17237;2;0;0;0;0;0;7;0;27259;0;0;0;0;8;0;27703;0;0;0;0;9;0;11820;0;0;0;0
11.02.21;22:20:00;1;976;19284;0;2;0;18790;0;0;0;0;3;0;12115;0;0;0;0;4;0;17949;0;0;0;0;5;0;0;0;0;0;0;0;0;6;0;17237;2;0;0;0;0;0;7;0;27259;0;0;0;0;8;0;27703;0;0;0;0;9;0;11820;0;0;0;0
11.02.21;22:15:00;1;471;19210;0;2;0;18790;0;0;0;0;3;0;12115;0;0;0;0;4;0;17949;0;0;0;0;5;0;0;0;0;0;0;0;0;6;0;17237;2;0;0;0;0;0;7;0;27259;0;0;0;0;8;0;27703;0;0;0;0;9;0;11820;0;0;0;0
11.02.21;22:10:00;1;1008;19171;0;2;0;18790;0;0;0;0;3;0;12115;0;0;0;0;4;0;17949;0;0;0;0;5;0;0;0;0;0;0;0;0;6;0;17237;2;0;0;0;0;0;7;0;27259;0;0;0;0;8;0;27703;0;0;0;0;9;0;11820;0;0;0;0
11.02.21;22:05:00;1;739;19103;0;2;0;18790;0;0;0;0;3;0;12115;0;0;0;0;4;0;17949;0;0;0;0;5;0;0;0;0;0;0;0;0;6;0;17237;2;0;0;0;0;0;7;0;27259;0;0;0;0;8;0;27703;0;0;0;0;9;0;11820;0;0;0;0
11.02.21;22:00:00;1;2552;19047;0;2;0;18790;0;0;0;0;3;0;12115;0;0;0;0;4;0;17949;0;0;0;0;5;0;0;0;0;0;0;0;0;6;0;17237;2;0;0;0;0;0;7;0;27259;0;0;0;0;8;0;27703;0;0;0;0;9;0;11820;0;0;0;0
11.02.21;21:55:00;1;959;18805;0;2;0;18790;0;0;0;0;3;0;12115;0;0;0;0;4;0;17949;0;0;0;0;5;0;0;0;0;0;0;0;0;6;0;17237;2;0;0;0;0;0;7;0;27259;0;0;0;0;8;0;27703;0;0;0;0;9;0;11820;0;0;0;0
11.02.21;21:50:00;1;594;18726;0;2;0;18790;0;0;0;0;3;0;12115;0;0;0;0;4;0;17949;0;0;0;0;5;0;0;0;0;0;0;0;0;6;0;17237;2;0;0;0;0;0;7;0;27259;0;0;0;0;8;0;27703;0;0;0;0;9;0;11820;0;0;0;0
11.02.21;21:45:00;1;596;18678;0;2;0;18790;0;0;0;0;3;0;12115;0;0;0;0;4;0;17949;0;0;0;0;5;0;0;0;0;0;0;0;0;6;0;17237;2;0;0;0;0;0;7;0;27259;0;0;0;0;8;0;27703;0;0;0;0;9;0;11820;0;0;0;0
11.02.21;21:40:00;1;635;18628;0;2;0;18790;0;0;0;0;3;0;12115;0;0;0;0;4;0;17949;0;0;0;0;5;0;0;0;0;0;0;0;0;6;0;17237;2;0;0;0;0;0;7;0;27259;0;0;0;0;8;0;27703;0;0;0;0;9;0;11820;0;0;0;0
11.02.21;21:35:00;1;489;18556;0;2;0;18790;0;0;0;0;3;0;12115;0;0;0;0;4;0;17949;0;0;0;0;5;0;0;0;0;0;0;0;0;6;0;17237;2;0;0;0;0;0;7;0;27259;0;0;0;0;8;0;27703;0;0;0;0;9;0;11820;0;0;0;0
11.02.21;21:30:00;1;941;18516;0;2;0;18790;0;0;0;0;3;0;12115;0;0;0;0;4;0;17949;0;0;0;0;5;0;0;0;0;0;0;0;0;6;0;17237;2;0;0;0;0;0;7;0;27259;0;0;0;0;8;0;27703;0;0;0;0;9;0;11820;0;0;0;0
11.02.21;21:25:00;1;697;18451;0;2;0;18790;0;0;0;0;3;0;12115;0;0;0;0;4;0;17949;0;0;0;0;5;0;0;0;0;0;0;0;0;6;0;17237;2;0;0;0;0;0;7;0;27259;0;0;0;0;8;0;27703;0;0;0;0;9;0;11820;0;0;0;0
11.02.21;21:20:00;1;531;18402;0;2;0;18790;0;0;0;0;3;0;12115;0;0;0;0;4;0;17949;0;0;0;0;5;0;0;0;0;0;0;0;0;6;0;17237;2;0;0;0;0;0;7;0;27259;0;0;0;0;8;0;27703;0;0;0;0;9;0;11820;0;0;0;0
11.02.21;21:15:00;1;1479;18357;0;2;0;18790;0;0;0;0;3;0;12115;0;0;0;0;4;0;17949;0;0;0;0;5;0;0;0;0;0;0;0;0;6;0;17237;2;0;0;0;0;0;7;0;27259;0;0;0;0;8;0;27703;0;0;0;0;9;0;11820;0;0;0;0
11.02.21;21:10:00;1;574;18275;0;2;0;18790;0;0;0;0;3;0;12115;0;0;0;0;4;0;17949;0;0;0;0;5;0;0;0;0;0;0;0;0;6;0;17237;2;0;0;0;0;0;7;0;27259;0;0;0;0;8;0;27703;0;0;0;0;9;0;11820;0;0;0;0
11.02.21;21:05:00;1;563;18228;0;2;0;18790;0;0;0;0;3;0;12115;0;0;0;0;4;0;17949;0;0;0;0;5;0;0;0;0;0;0;0;0;6;0;17237;2;0;0;0;0;0;7;0;27259;0;0;0;0;8;0;27703;0;0;0;0;9;0;11820;0;0;0;0
11.02.21;21:00:00;1;851;18180;0;2;0;18790;0;0;0;0;3;0;12115;0;0;0;0;4;0;17949;0;0;0;0;5;0;0;0;0;0;0;0;0;6;0;17237;2;0;0;0;0;0;7;0;27259;0;0;0;0;8;0;27703;0;0;0;0;9;0;11820;0;0;0;0
11.02.21;20:55:00;1;539;18104;0;2;0;18790;0;0;0;0;3;0;12115;0;0;0;0;4;0;17949;0;0;0;0;5;0;0;0;0;0;0;0;0;6;0;17237;2;0;0;0;0;0;7;0;27259;0;0;0;0;8;0;27703;0;0;0;0;9;0;11820;0;0;0;0
11.02.21;20:50:00;1;701;18060;0;2;0;18790;0;0;0;0;3;0;12115;0;0;0;0;4;0;17949;0;0;0;0;5;0;0;0;0;0;0;0;0;6;0;17237;2;0;0;0;0;0;7;0;27259;0;0;0;0;8;0;27703;0;0;0;0;9;0;11820;0;0;0;0
11.02.21;20:45:00;1;1083;18011;0;2;0;18790;0;0;0;0;3;0;12115;0;0;0;0;4;0;17949;0;0;0;0;5;0;0;0;0;0;0;0;0;6;0;17237;2;0;0;0;0;0;7;0;27259;0;0;0;0;8;0;27703;0;0;0;0;9;0;11820;0;0;0;0
11.02.21;20:40:00;1;637;17926;0;2;0;18790;0;0;0;0;3;0;12115;0;0;0;0;4;0;17949;0;0;0;0;5;0;0;0;0;0;0;0;0;6;0;17237;2;0;0;0;0;0;7;0;27259;0;0;0;0;8;0;27703;0;0;0;0;9;0;11820;0;0;0;0
11.02.21;20:35:00;1;1145;17873;0;2;0;18790;0;0;0;0;3;0;12115;0;0;0;0;4;0;17949;0;0;0;0;5;0;0;0;0;0;0;0;0;6;0;17237;2;0;0;0;0;0;7;0;27259;0;0;0;0;8;0;27703;0;0;0;0;9;0;11820;0;0;0;0
11.02.21;20:30:00;1;895;17779;0;2;0;18790;0;0;0;0;3;0;12115;0;0;0;0;4;0;17949;0;0;0;0;5;0;0;0;0;0;0;0;0;6;0;17237;2;0;0;0;0;0;7;0;27259;0;0;0;0;8;0;27703;0;0;0;0;9;0;11820;0;0;0;0
11.02.21;20:25:00;1;688;17717;0;2;0;18790;0;0;0;0;3;0;12115;0;0;0;0;4;0;17949;0;0;0;0;5;0;0;0;0;0;0;0;0;6;0;17237;2;0;0;0;0;0;7;0;27259;0;0;0;0;8;0;27703;0;0;0;0;9;0;11820;0;0;0;0
11.02.21;20:20:00;1;1304;17660;0;2;0;18790;0;0;0;0;3;0;12115;0;0;0;0;4;0;17949;0;0;0;0;5;0;0;0;0;0;0;0;0;6;0;17237;2;0;0;0;0;0;7;0;27259;0;0;0;0;8;0;27703;0;0;0;0;9;0;11820;0;0;0;0
11.02.21;20:15:00;1;819;17563;0;2;0;18790;0;0;0;0;3;0;12115;0;0;0;0;4;0;17949;0;0;0;0;5;0;0;0;0;0;0;0;0;6;0;17237;2;0;0;0;0;0;7;0;27259;0;0;0;0;8;0;27703;0;0;0;0;9;0;11820;0;0;0;0
11.02.21;20:10:00;1;777;17495;0;2;0;18790;0;0;0;0;3;0;12115;0;0;0;0;4;0;17949;0;0;0;0;5;0;0;0;0;0;0;0;0;6;0;17237;2;0;0;0;0;0;7;0;27259;0;0;0;0;8;0;27703;0;0;0;0;9;0;11820;0;0;0;0
11.02.21;20:05:00;1;1174;17430;0;2;0;18790;0;0;0;0;3;0;12115;0;0;0;0;4;0;17949;0;0;0;0;5;0;0;0;0;0;0;0;0;6;0;17237;2;0;0;0;0;0;7;0;27259;0;0;0;0;8;0;27703;0;0;0;0;9;0;11820;0;0;0;0
11.02.21;20:00:00;1;765;17332;0;2;0;18790;0;0;0;0;3;0;12115;0;0;0;0;4;0;17949;0;0;0;0;5;0;0;0;0;0;0;0;0;6;0;17237;2;0;0;0;0;0;7;0;27259;0;0;0;0;8;0;27703;0;0;0;0;9;0;11820;0;0;0;0
11.02.21;19:55:00;1;1235;17268;0;2;0;18790;0;0;0;0;3;0;12115;0;0;0;0;4;0;17949;0;0;0;0;5;0;0;0;0;0;0;0;0;6;0;17237;2;0;0;0;0;0;7;0;27259;0;0;0;0;8;0;27703;0;0;0;0;9;0;11820;0;0;0;0
11.02.21;19:50:00;1;831;17167;0;2;0;18790;0;0;0;0;3;0;12115;0;0;0;0;4;0;17949;0;0;0;0;5;0;0;0;0;0;0;0;0;6;0;17237;2;0;0;0;0;0;7;0;27259;0;0;0;0;8;0;27703;0;0;0;0;9;0;11820;0;0;0;0
11.02.21;19:45:00;1;876;17097;0;2;0;18790;0;0;0;0;3;0;12115;0;0;0;0;4;0;17949;0;0;0;0;5;0;0;0;0;0;0;0;0;6;0;17237;2;0;0;0;0;0;7;0;27259;0;0;0;0;8;0;27703;0;0;0;0;9;0;11820;0;0;0;0
11.02.21;19:40:00;1;1461;17024;0;2;0;18790;0;0;0;0;3;0;12115;0;0;0;0;4;0;17949;0;0;0;0;5;0;0;0;0;0;0;0;0;6;0;17237;2;0;0;0;0;0;7;0;27259;0;0;0;0;8;0;27703;0;0;0;0;9;0;11820;0;0;0;0
11.02.21;19:35:00;1;3392;16910;0;2;0;18790;0;0;0;0;3;0;12115;0;0;0;0;4;0;17949;0;0;0;0;5;0;0;0;0;0;0;0;0;6;0;17237;0;0;0;0;0;0;7;0;27259;0;0;0;0;8;0;27703;0;0;0;0;9;0;11820;0;0;0;0
11.02.21;19:30:00;1;1770;16612;0;2;0;18790;0;0;0;0;3;0;12115;0;0;0;0;4;0;17949;0;0;0;0;5;0;0;0;0;0;0;0;0;6;0;17237;2;0;0;0;0;0;7;0;27259;0;0;0;0;8;0;27703;0;0;0;0;9;0;11820;0;0;0;0
11.02.21;19:25:00;1;1111;16521;0;2;0;18790;0;0;0;0;3;0;12115;0;0;0;0;4;0;17949;0;0;0;0;5;0;0;0;0;0;0;0;0;6;0;17237;2;0;0;0;0;0;7;0;27259;0;0;0;0;8;0;27703;0;0;0;0;9;0;11820;0;0;0;0
11.02.21;19:20:00;1;2108;16424;0;2;0;18790;0;0;0;0;3;0;12115;0;0;0;0;4;0;17949;0;0;0;0;5;0;0;0;0;0;0;0;0;6;0;17237;2;0;0;0;0;0;7;0;27259;0;0;0;0;8;0;27703;0;0;0;0;9;0;11820;0;0;0;0
11.02.21;19:15:00;1;3485;16277;0;2;0;18790;0;0;0;0;3;0;12115;0;0;0;0;4;0;17949;0;0;0;0;5;0;0;0;0;0;0;0;0;6;0;17237;2;0;0;0;0;0;7;0;27259;0;0;0;0;8;0;27703;0;0;0;0;9;0;11820;0;0;0;0
11.02.21;19:10:00;1;2757;15995;0;2;0;18790;0;0;0;0;3;0;12115;0;0;0;0;4;0;17949;0;0;0;0;5;0;0;0;0;0;0;0;0;6;0;17237;2;0;0;0;0;0;7;0;27259;0;0;0;0;8;0;27703;0;0;0;0;9;0;11820;0;0;0;0
11.02.21;19:05:00;1;2732;15763;0;2;0;18790;0;0;0;0;3;0;12115;0;0;0;0;4;0;17949;0;0;0;0;5;0;0;0;0;0;0;0;0;6;0;17237;2;0;0;0;0;0;7;0;27259;0;0;0;0;8;0;27703;0;0;0;0;9;0;11820;0;0;0;0
11.02.21;19:00:00;1;2510;15532;0;2;0;18790;0;0;0;0;3;0;12115;0;0;0;0;4;0;17949;0;0;0;0;5;0;0;0;0;0;0;0;0;6;0;17237;2;0;0;0;0;0;7;0;27259;0;0;0;0;8;0;27703;0;0;0;0;9;0;11820;0;0;0;0
11.02.21;18:55:00;1;2934;15290;0;2;0;18790;0;0;0;0;3;0;12115;0;0;0;0;4;0;17949;0;0;0;0;5;0;0;0;0;0;0;0;0;6;0;17237;2;0;0;0;0;0;7;0;27259;0;0;0;0;8;0;27703;0;0;0;0;9;0;11820;0;0;0;0
11.02.21;18:50:00;1;2998;15046;0;2;0;18790;0;0;0;0;3;0;12115;0;0;0;0;4;0;17949;0;0;0;0;5;0;0;0;0;0;0;0;0;6;0;17237;2;0;0;0;0;0;7;0;27259;0;0;0;0;8;0;27703;0;0;0;0;9;0;11820;0;0;0;0
11.02.21;18:45:00;1;1341;14773;0;2;0;18790;0;0;0;0;3;0;12115;0;0;0;0;4;0;17949;0;0;0;0;5;0;0;0;0;0;0;0;0;6;0;17237;2;0;0;0;0;0;7;0;27259;0;0;0;0;8;0;27703;0;0;0;0;9;0;11820;0;0;0;0
11.02.21;18:40:00;1;902;14660;0;2;0;18790;0;0;0;0;3;0;12115;0;0;0;0;4;0;17949;0;0;0;0;5;0;0;0;0;0;0;0;0;6;0;17237;2;0;0;0;0;0;7;0;27259;0;0;0;0;8;0;27703;0;0;0;0;9;0;11820;0;0;0;0
11.02.21;18:35:00;1;694;14565;0;2;0;18790;0;0;0;0;3;0;12115;0;0;0;0;4;0;17949;0;0;0;0;5;0;0;0;0;0;0;0;0;6;0;17237;2;0;0;0;0;0;7;0;27259;0;0;0;0;8;0;27703;0;0;0;0;9;0;11820;0;0;0;0
11.02.21;18:30:00;1;1026;14507;0;2;0;18790;0;0;0;0;3;0;12115;0;0;0;0;4;0;17949;0;0;0;0;5;0;0;0;0;0;0;0;0;6;0;17237;2;0;0;0;0;0;7;0;27259;0;0;0;0;8;0;27703;0;0;0;0;9;0;11820;0;0;0;0
11.02.21;18:25:00;1;721;14413;0;2;0;18790;0;0;0;0;3;0;12115;0;0;0;0;4;0;17949;0;0;0;0;5;0;0;0;0;0;0;0;0;6;0;17237;2;0;0;0;0;0;7;0;27259;0;0;0;0;8;0;27703;0;0;0;0;9;0;11820;0;0;0;0
11.02.21;18:20:00;1;1093;14352;0;2;0;18790;0;0;0;0;3;0;12115;0;0;0;0;4;0;17949;0;0;0;0;5;0;0;0;0;0;0;0;0;6;0;17237;2;0;0;0;0;0;7;0;27259;0;0;0;0;8;0;27703;0;0;0;0;9;0;11820;0;0;0;0
11.02.21;18:15:00;1;1800;14255;0;2;0;18790;0;0;0;0;3;0;12115;0;0;0;0;4;0;17949;0;0;0;0;5;0;0;0;0;0;0;0;0;6;0;17237;2;0;0;0;0;0;7;0;27259;0;0;0;0;8;0;27703;0;0;0;0;9;0;11820;0;0;0;0
11.02.21;18:10:00;1;3147;14115;0;2;0;18790;0;0;0;0;3;0;12115;0;0;0;0;4;0;17949;0;0;0;0;5;0;0;0;0;0;0;0;0;6;0;17237;2;0;0;0;0;0;7;0;27259;0;0;0;0;8;0;27703;0;0;0;0;9;0;11820;0;0;0;0
11.02.21;18:05:00;1;2524;13870;0;2;0;18790;0;0;0;0;3;0;12115;0;0;0;0;4;0;17949;0;0;0;0;5;0;0;0;0;0;0;0;0;6;0;17237;2;0;0;0;0;0;7;0;27259;0;0;0;0;8;0;27703;0;0;0;0;9;0;11820;0;0;0;0
11.02.21;18:00:00;1;2836;13658;0;2;0;18790;0;0;0;0;3;0;12115;0;0;0;0;4;0;17949;0;0;0;0;5;0;0;0;0;0;0;0;0;6;0;17237;2;0;0;0;0;0;7;0;27259;0;0;0;0;8;0;27703;0;0;0;0;9;0;11820;0;0;0;0
11.02.21;17:55:00;1;2512;13414;0;2;0;18790;0;0;0;0;3;0;12115;0;0;0;0;4;0;17949;0;0;0;0;5;0;0;0;0;0;0;0;0;6;0;17237;2;0;0;0;0;0;7;0;27259;0;0;0;0;8;0;27703;0;0;0;0;9;0;11820;0;0;0;0
11.02.21;17:50:00;1;1309;13225;0;2;0;18790;0;0;0;0;3;0;12115;0;0;0;0;4;0;17949;0;0;0;0;5;0;0;0;0;0;0;0;0;6;0;17237;2;0;0;0;0;0;7;0;27259;0;0;0;0;8;0;27703;0;0;0;0;9;0;11820;0;0;0;0
11.02.21;17:45:00;1;658;13135;0;2;0;18790;0;0;36;1;3;0;12115;0;0;152;6;4;0;17949;0;0;0;0;5;0;0;0;0;0;0;0;0;6;0;17237;2;0;0;0;0;0;7;0;27259;0;0;0;0;8;0;27703;0;0;0;0;9;0;11820;0;0;0;0
11.02.21;17:40:00;1;969;13080;0;2;0;18790;6;0;303;9;3;0;12115;6;0;343;12;4;0;17949;0;0;24;2;5;0;0;0;0;0;0;0;0;6;0;17237;2;0;0;0;0;0;7;0;27259;0;0;0;0;8;0;27703;0;0;0;0;9;0;11820;0;0;0;0
11.02.21;17:35:00;1;694;12990;0;2;0;18790;6;0;352;9;3;0;12115;6;0;416;13;4;0;17949;2;0;91;6;5;0;0;0;0;0;0;0;0;6;0;17237;2;0;0;0;0;1;7;0;27259;0;0;0;0;8;0;27703;0;0;0;0;9;0;11820;0;0;42;1
11.02.21;17:30:00;1;1057;12933;0;2;0;18790;6;0;397;10;3;0;12115;6;1;485;13;4;0;17949;1;0;155;6;5;0;0;0;0;0;0;0;0;6;0;17237;1;7;2;171;251;18;7;0;27259;6;0;313;14;8;0;27703;6;0;317;13;9;0;11820;6;0;329;9
11.02.21;17:25:00;1;866;12852;0;2;2;18790;6;4;409;10;3;1;12115;4;3;510;13;4;0;17949;1;0;206;7;5;0;0;0;0;0;0;0;0;6;0;17237;23;3;4;385;540;19;7;0;27259;6;0;409;14;8;0;27703;6;0;413;14;9;0;11820;6;1;412;10
11.02.21;17:20:00;1;898;12789;0;2;0;18790;6;0;442;11;3;5;12114;3;18;492;13;4;0;17949;3;0;231;7;5;0;0;0;0;0;0;0;0;6;16;17237;1;10;11;545;490;20;7;0;27259;6;0;495;15;8;0;27703;4;6;455;14;9;0;11820;6;2;520;10
11.02.21;17:15:00;1;1082;12726;0;2;45;18790;4;79;373;11;3;3;12114;6;8;554;13;4;2;17949;3;3;200;7;5;0;0;0;0;0;0;0;0;6;8;17236;1;10;9;511;461;20;7;2;27259;4;5;498;15;8;3;27703;3;12;477;14;9;0;11820;6;4;535;10
11.02.21;17:10:00;1;578;12650;0;2;48;18786;4;86;385;11;3;7;12114;6;17;530;14;4;4;17948;3;4;200;8;5;0;0;0;0;0;0;0;0;6;5;17235;4;4;7;551;532;20;7;3;27259;6;7;499;15;8;5;27703;6;15;477;15;9;1;11820;3;10;515;10
11.02.21;17:05:00;1;915;12601;0;2;67;18782;4;101;381;12;3;5;12113;6;10;561;14;4;20;17948;3;21;199;8;5;0;0;0;0;0;0;0;0;6;51;17234;4;54;17;417;323;21;7;11;27258;6;25;498;16;8;21;27703;6;39;466;15;9;6;11820;6;15;532;10
11.02.21;17:00:00;1;623;12510;0;2;97;18776;4;133;382;12;3;14;12113;6;24;553;14;4;39;17946;3;41;198;8;5;0;0;0;0;0;0;0;0;6;68;17229;4;49;15;418;323;21;7;74;27257;4;102;444;16;8;64;27700;4;100;458;15;9;5;11819;6;9;568;11
11.02.21;16:55:00;1;1099;12458;0;2;114;18768;4;153;395;12;3;61;12111;4;101;476;15;4;60;17943;3;63;198;8;5;0;0;0;0;0;0;0;0;6;83;17224;4;51;15;417;323;21;7;93;27251;4;125;435;16;8;91;27695;4;128;412;15;9;16;11819;6;24;552;11
11.02.21;16:50:00;1;590;12371;0;2;136;18759;4;175;395;12;3;75;12106;4;117;513;15;4;78;17938;3;81;203;9;5;0;0;0;0;0;0;0;0;6;100;17216;4;65;17;417;323;21;7;122;27243;4;161;441;16;8;125;27687;4;167;435;16;9;50;11817;6;72;513;11
11.02.21;16:45:00;1;1515;12321;0;2;176;18747;4;217;398;13;3;103;12100;4;146;522;15;4;124;17931;5;129;236;9;5;0;0;0;0;0;0;0;0;6;126;17208;4;89;22;418;323;21;7;176;27233;4;211;430;16;8;170;27677;4;209;432;16;9;94;11813;4;124;493;12
11.02.21;16:40:00;1;1621;12162;0;2;223;18733;4;267;403;13;3;131;12091;4;174;537;15;4;157;17921;5;164;236;9;5;0;0;0;0;0;0;0;0;6;150;17197;4;128;29;418;323;21;7;210;27218;4;258;477;17;8;213;27663;4;255;474;16;9;115;11806;4;150;530;12
11.02.21;16:35:00;1;2043;12040;0;2;219;18714;4;261;397;13;3;133;12080;4;172;495;16;4;154;17908;5;160;243;10;5;0;0;0;0;0;0;0;0;6;150;17184;4;118;26;417;323;21;7;193;27201;4;245;476;17;8;207;27645;4;247;479;16;9;111;11796;4;144;517;12
11.02.21;16:30:00;1;1314;11895;0;2;238;18696;4;282;399;14;3;143;12069;4;187;521;16;4;173;17895;5;180;240;10;5;0;0;0;0;0;0;0;0;6;195;17172;4;169;31;547;323;22;7;216;27185;4;258;467;17;8;212;27628;4;259;480;16;9;116;11787;4;147;529;12
11.02.21;16:25:00;1;1777;11785;0;2;310;18676;4;360;413;14;3;190;12057;4;234;517;16;4;231;17881;5;241;245;10;5;0;0;0;0;0;0;0;0;6;231;17155;4;213;34;602;323;22;7;280;27167;4;329;495;17;8;281;27610;4;327;495;16;9;153;11777;4;187;538;12
11.02.21;16:20:00;1;2000;11644;0;2;362;18650;4;412;421;15;3;223;12042;4;270;536;16;4;278;17861;5;290;248;11;5;0;0;0;0;0;0;0;0;6;258;17136;4;228;32;606;323;22;7;337;27143;4;388;496;17;8;339;27586;4;383;501;17;9;181;11764;4;219;536;12
11.02.21;16:15:00;1;812;11446;0;2;393;18620;4;443;422;15;3;243;12023;4;292;538;17;4;308;17838;5;320;244;11;5;0;0;0;0;0;0;0;0;6;290;17114;4;260;37;612;323;22;7;396;27115;4;441;505;17;8;398;27558;4;444;497;17;9;214;11749;4;254;541;13
11.02.21;16:10:00;1;644;11363;0;2;370;18587;4;423;424;16;3;230;12003;4;275;521;17;4;286;17812;5;298;245;12;5;0;0;0;0;0;0;0;0;6;270;17090;4;260;38;600;323;22;7;383;27082;4;435;495;18;8;386;27525;4;432;478;17;9;207;11731;4;245;542;13
11.02.21;16:05:00;1;894;11310;0;2;466;18556;4;519;421;16;3;287;11984;4;338;531;18;4;372;17788;5;387;249;12;5;0;0;0;0;0;0;0;0;6;346;17067;4;310;41;619;323;22;7;481;27050;4;533;492;18;8;484;27493;4;534;497;17;9;258;11714;4;298;532;13
11.02.21;16:00:00;1;579;11232;0;2;546;18517;4;601;424;17;3;337;11960;4;391;550;18;4;447;17757;5;466;250;13;5;0;0;0;0;0;0;0;0;6;413;17038;4;375;47;623;323;22;7;571;27010;4;627;495;18;8;575;27452;4;630;491;17;9;308;11692;4;354;553;13
11.02.21;15:55:00;1;370;11193;0;2;596;18472;4;658;430;18;3;375;11931;4;430;535;18;4;498;17720;5;519;252;13;5;0;0;0;0;0;0;0;0;6;469;17003;4;449;55;622;323;22;7;643;26963;4;705;500;18;8;651;27405;4;705;498;17;9;347;11667;4;394;562;13
11.02.21;15:50:00;1;787;11154;0;2;598;18422;4;659;427;18;3;377;11900;4;431;535;19;4;494;17678;5;514;254;14;5;0;0;0;0;0;0;0;0;6;468;16963;4;415;50;626;323;22;7;652;26909;4;710;505;18;8;655;27350;4;711;494;18;9;349;11638;4;399;553;13
11.02.21;15:45:00;1;343;11097;0;2;611;18372;4;671;429;19;3;384;11869;4;441;541;19;4;503;17637;5;523;251;14;5;0;0;0;0;0;0;0;0;6;484;16924;4;463;55;626;323;22;7;656;26855;4;717;504;18;8;657;27296;4;716;501;18;9;353;11609;4;397;550;13
11.02.21;15:40:00;1;592;11068;0;2;697;18321;4;760;427;20;3;437;11837;4;492;543;20;4;579;17595;5;603;252;15;5;0;0;0;0;0;0;0;0;6;558;16884;4;518;59;629;323;22;7;736;26800;4;802;505;18;8;746;27241;4;802;501;18;9;397;11579;4;446;541;13
11.02.21;15:35:00;1;391;11003;0;2;886;18263;4;959;434;21;3;559;11800;4;621;539;20;4;750;17547;5;781;250;16;5;0;0;0;0;0;0;0;0;6;716;16837;4;655;68;638;323;22;7;1021;26739;4;1092;497;18;8;1009;27179;4;1076;498;18;9;538;11546;4;597;555;14
11.02.21;15:30:00;1;644;10971;0;2;1174;18189;4;1256;428;23;3;738;11753;4;808;554;21;4;969;17484;5;1009;258;16;5;0;0;0;0;0;0;0;0;6;924;16775;4;865;84;636;323;23;7;1484;26653;4;1573;511;18;8;1525;27094;4;1609;496;17;9;755;11501;4;823;565;14
11.02.21;15:25:00;1;372;10899;0;2;1418;18091;4;1510;434;24;3;909;11692;4;985;553;22;4;1217;17403;5;1267;255;17;5;0;0;0;0;0;0;0;0;6;1106;16697;4;1022;98;638;323;23;7;1741;26530;4;1832;512;18;8;1721;26967;4;1813;509;17;9;923;11438;4;1000;566;14
11.02.21;15:20:00;1;978;10868;0;2;2420;17973;4;2559;438;25;3;1153;11616;4;1241;575;22;4;1524;17302;5;1587;269;18;5;0;0;0;0;0;0;0;0;6;1535;16607;4;1440;119;657;323;23;7;2230;26384;4;2348;499;18;8;2431;26824;4;2548;507;17;9;1373;11361;4;1468;569;14
11.02.21;15:15:00;1;348;10806;0;2;1155;17774;4;1237;430;25;3;711;11521;4;783;554;22;4;902;17176;5;939;254;18;5;0;0;0;0;0;0;0;0;6;819;16483;4;791;75;635;323;23;7;1408;26200;4;1487;495;18;8;1380;26623;4;1462;496;17;9;731;11248;4;798;554;14
11.02.21;15:10:00;1;766;10777;0;2;2302;17677;4;2434;435;27;3;1134;11461;4;1223;567;23;4;1589;17101;5;1655;264;19;5;0;0;0;0;0;0;0;0;6;1525;16416;4;1389;113;648;323;23;7;2908;26082;4;3056;496;19;8;2922;26508;4;3070;517;18;9;1608;11187;4;1715;567;14
11.02.21;15:05:00;1;350;10714;0;2;1828;17487;4;1941;434;27;3;1094;11368;4;1183;574;24;4;1427;16970;5;1487;258;20;5;0;0;0;0;0;0;0;0;6;1328;16288;4;1279;113;641;323;23;7;2387;25843;4;2511;505;19;8;2331;26268;4;2447;482;18;9;1255;11055;4;1348;568;15
11.02.21;15:00:00;1;719;10685;0;2;2434;17335;4;2575;420;29;3;1472;11276;4;1569;537;24;4;1876;16851;5;1954;257;21;5;0;0;0;0;0;0;0;0;6;1728;16174;4;1618;133;654;323;23;7;3011;25645;4;3161;496;19;8;2978;26075;4;3123;496;18;9;1638;10950;4;1740;542;16
11.02.21;14:55:00;1;459;10619;0;2;4348;17134;4;4593;437;30;3;2617;11154;4;2763;552;25;4;2981;16694;5;3105;261;21;5;0;0;0;0;0;0;0;0;6;3022;16027;4;2830;215;656;307;23;7;5638;25395;4;5919;509;19;8;5479;25827;4;5755;510;18;9;2991;10814;4;3171;552;16
11.02.21;14:50:00;1;625;10585;0;2;2527;16773;4;2674;443;27;3;1656;10937;4;1764;565;24;4;2107;16448;5;2195;260;20;5;0;0;0;0;0;0;0;0;6;2051;15775;4;1967;156;654;321;23;7;3350;24926;4;3517;517;19;8;3345;25374;4;3505;521;18;9;1837;10566;4;1954;558;15
11.02.21;14:45:00;1;633;10530;0;2;1656;16557;4;1759;432;27;3;1088;10796;4;1172;558;24;4;1431;16269;5;1491;256;21;5;0;0;0;0;0;0;0;0;6;1311;15613;4;1274;112;645;323;23;7;2528;24640;4;2650;516;20;8;2688;25089;4;2826;506;19;9;1432;10410;4;1526;539;15
11.02.21;14:40:00;1;646;10485;0;2;1793;16421;4;1907;439;29;3;1149;10706;4;1235;557;25;4;1516;16151;5;1579;254;22;5;0;0;0;0;0;0;0;0;6;1366;15506;4;1294;112;642;323;23;7;2404;24433;4;2528;507;20;8;2351;24869;4;2468;503;19;9;1256;10294;4;1343;552;15
11.02.21;14:35:00;1;699;10438;0;2;2364;16271;4;2509;450;31;3;1443;10610;4;1543;553;26;4;2015;16025;5;2099;259;23;5;0;0;0;0;0;0;0;0;6;1802;15390;4;1751;140;648;323;23;7;2833;24232;4;2968;487;21;8;2875;24673;4;3025;534;20;9;1618;10189;4;1720;544;16
11.02.21;14:30:00;1;477;10378;0;2;2917;16079;4;3086;443;32;3;1957;10493;4;2074;556;26;4;2290;15861;5;2386;257;23;5;0;0;0;0;0;0;0;0;6;2102;15237;4;1989;154;648;331;23;7;3740;23998;4;3917;485;22;8;3735;24435;4;3919;516;21;9;1725;10056;4;1834;539;17
11.02.21;14:25:00;1;692;10340;0;2;2773;15838;4;2929;432;32;3;1624;10331;4;1733;557;26;4;2150;15672;5;2239;256;24;5;0;0;0;0;0;0;0;0;6;1946;15056;4;1843;149;647;323;23;7;2970;23689;4;3122;499;22;8;2989;24126;4;3143;515;21;9;1629;9913;4;1736;550;17
11.02.21;14:20:00;1;369;10269;0;2;2678;15615;4;2835;418;35;3;1734;10200;4;1848;563;28;4;2064;15498;5;2149;254;25;5;0;0;0;0;0;0;0;0;6;1865;14912;4;1741;142;636;344;23;7;1801;23455;4;1900;500;24;8;1783;23890;4;1872;498;23;9;1078;9783;4;1160;538;18
11.02.21;14:15:00;1;586;10239;0;2;2990;15395;4;3157;424;36;3;1820;10057;4;1935;550;28;4;2323;15328;5;2419;252;26;5;0;0;0;0;0;0;0;0;6;2105;14744;4;1951;161;615;341;23;7;2715;23306;4;2848;493;25;8;2195;23742;4;2313;466;24;9;1206;9695;4;1293;532;20
11.02.21;14:10:00;1;368;10176;0;2;4618;15146;4;4891;427;37;3;3125;9904;4;3293;532;29;4;3787;15132;5;3945;254;26;5;0;0;0;0;0;0;0;0;6;3626;14543;4;3440;278;643;388;23;7;5328;23061;4;5591;511;26;8;5142;23561;4;5392;455;25;9;2469;9598;4;2618;520;21